NOAA 16 DEB, 41158

Orbit data source: Space-Track

NOAA 16 DEB, 41158 is space debris in SSO originally from a launch on Thu, 21 Sep 2000 UTC launched from the Air Force Western Test Range (AFWTR). Debris objects in space refer to the collection of defunct objects orbiting the Earth. Examples of debris include non-operational satellites, rocket bodies, and fragments generated from explosions, collisions, or faulty payload assembly.

Loading next visibility...
Identifier
41158, 2000-055CR
Orbit
SSO
Country
Flag of USUS
Related business
Manufacturer
Unknown
Mission
Spacecraft
Bus & Motor
Unknown
Mass
Unknown
Launch date (UTC)
2000-09-21 (25 years ago)
Launch vehicle
Unknown
Launch site
Air Force Western Test Range (AFWTR)
Object type
Payload
Rocket body
Debris
Shape & HBR
Unknown shape, 0.1 m
Radar Cross Section
Small (<0.1 m²)

Expand to show TLE details & history
Last TLE update: 21 hours ago

TLE from 21 hours ago
0 NOAA 16 DEB
1 41158U 00055CR  25349.21901748  .00004750  00000-0  15322-2 0  9995
2 41158  98.9542 138.2965 0010391  11.0227 349.1185 14.39662477520488
Epoch: 2025-12-15T05:15Z
TLE epoch observation values (Epoch: 2025-12-15T05:15:23.110Z)
Latitude
-0.00004°
Longitude
-24.67051°
Altitude
755.262 km
Speed
7.481 km/s
True Right ascension
09h 13m 11s
True Declination
0° 00' 00"
Sunlit
Object was in full shadow at epoch
Visualization orbit readout
Latitude
Unknown
Longitude
Unknown
Altitude
Unknown
Speed
Unknown
Apparent Right ascension
Unknown
Apparent Declination
Unknown
Sunlit
N/A
Visualization observer readout
Local Sidereal Time
00:39:55
Azimuth
Unknown
Elevation
Unknown
Doppler factor
Unknown
Orbital elements
Apogee altitude
764.172 km
Perigee altitude
749.344 km
Semi-major axis
7,134.895 km
Eccentricity
0.00104
Inclination
98.9542°
RAAN
138.2965°
Arg. of periapsis
11.0227°
True anomaly
349.09599°
Mean anomaly
349.1185°
Eccentric anomaly
349.10725°
Mean motion
3.60132 °/min
Orbital period
99.96 mins
BSTAR
0.0015322
Loading maneuver chart data...
Computing Atmospheric mass density...
Loading historical data...
Loading historical data...
Loading historical data...
Loading historical data...
Loading historical data...
Loading historical data...
Loading historical data...

Documentation

Showing up to 5 results
|